Location: Chatou
(48.8898°N, 2.1586°E)
Time: 06:15:24
(UTC+00:00)

Cosmos 1850 Rocket - Pass Details

Date: 03 February 2023
Orbit: 753 x 784 km, 74.0° (Epoch: 21 March)

Event Time Altitude Azimuth Distance (km) Brightness Sun altitude
Rises 18:23:19 0° 177° (S) 3,203 7.3 -15.2°
Reaches altitude 10° 18:25:49 10° 169° (S) 2,279 6.4 -15.7°
Maximum altitude 18:30:31 37° 103° (ESE) 1,161 4.4 -16.4°
Enters shadow 18:32:53 24° 55° (NE) 1,521 5.0 -16.8°
